Regional Weather Roundup
Issued by NWS

Home | Current Version | Previous Version | Graphics & Text | Print | Product List | Glossary On
Versions: 1 2 3 4 5 6 7 8 9 10 11 12 13 14 15 16 17 18 19 20 21 22 23 24 25 26 27 28 29 30 31 32 33 34 35 36 37 38 39 40 41 42 43 44 45 46 47 48 49 50
000
ASUS43 KMPX 300110
RWRMN
WEATHER ROUNDUP FOR MINNESOTA
NATIONAL WEATHER SERVICE TWIN CITIES/CHANHASSEN MN
800 PM CDT SAT APR 29 2017


NOTE: "FAIR" INDICATES FEW OR NO CLOUDS BELOW 12,000 FEET WITH NO
SIGNIFICANT WEATHER AND/OR OBSTRUCTIONS TO VISIBILITY. N/A MEANS
CURRENT SKY AND/OR WEATHER CONDITIONS ARE NOT AVAILABLE.

MNZ060>063-068>070-300200-
   Twin Cities Metro

CITY           SKY/WX    TMP DP  RH WIND       PRES   REMARKS
TWIN CITIES    CLOUDY    54  22  28 NE10      30.17R
ST PAUL        CLOUDY    53  24  32 E10       30.18R
CRYSTAL        CLOUDY    52  18  26 NE15      30.17R
BLAINE         CLOUDY    54  19  26 NE14G20   30.17R
LAKEVILLE      MOCLDY    48  28  46 NE10      30.17R
EDEN PRAIRIE   CLOUDY    54  22  28 NE10      30.16R
SOUTH ST PAUL  MOCLDY    53  24  31 NE10G16   30.17R
LAKE ELMO      FAIR      52  27  37 NE9       30.18R
$$
MNZ001>005-007-008-013>017-022>024-027-028-300200-
   Northwest Minnesota

CITY           SKY/WX    TMP DP  RH WIND       PRES   REMARKS
BEMIDJI        CLEAR     52  22  31 NE3       30.22R
HALLOCK        CLEAR     57  25  28 SE6       30.21F
ROSEAU         CLEAR     54  36  50 E6        30.23F
WARROAD        CLEAR     48  28  46 E8        30.24F
THIEF RVR FALL CLEAR     55  21  26 NE7       30.23F
CROOKSTON      CLEAR     55  27  33 CALM      30.23S
FOSSTON        CLEAR     54  25  32 N5        30.22S
DETROIT LAKES  CLEAR     54  28  37 N6        30.21S
MOORHEAD       CLEAR     55  23  28 NE8       30.22R
PARK RAPIDS    CLOUDY    54  18  24 E7        30.21R
MAHNOMEN       FAIR      52  32  46 N6        30.21R
$$
MNZ006-009>011-018-025>026-300200-
   North Central Minnesota

CITY           SKY/WX    TMP DP  RH WIND       PRES   REMARKS
BAUDETTE       CLEAR     52  20  28 N10       30.22F
FLAG ISLAND    CLEAR     50  12  22 CALM      30.23F
INTL FALLS     CLEAR     50  16  25 E6        30.24F
WASKISH        CLEAR     48  28  46 W3        30.23S
BIG FORK       CLEAR     54  18  24 E7        30.23S
LONGVILLE      CLEAR     54  18  24 NE3       30.21R
GRAND RAPIDS   CLEAR     52  16  24 E5        30.24F
CRANE LAKE     CLEAR     46  14  27 CALM      30.27F
ORR            CLEAR     52  10  19 CALM      30.22F
COOK           CLEAR     50  16  25 CALM      30.25S
WALKER         FAIR      52  21  29 CALM      30.22R
$$
MNZ012-019>021-037-300200-
   Northeast Minnesota

CITY           SKY/WX    TMP DP  RH WIND       PRES   REMARKS
DULUTH         CLOUDY    41  16  36 E13       30.26F
ELY            CLEAR     48   9  20 E3        30.25F
HIBBING        CLEAR     44  24  45 SE8       30.24S
EVELETH        CLEAR     46   9  22 SE7       30.27R
DULUTH HARBOR  CLOUDY    39  30  70 NE18      30.29R
TWO HARBORS    PTCLDY    43  23  45 E5        30.27R
SILVER BAY     PTCLDY    39  16  38 NE5       30.27F
GRAND MARAIS     N/A     37  25  61 W3        30.31F
G MARAIS ARPRT CLEAR     37  12  35 CALM      30.29S
$$
MNZ029>031-032-039>041-046>048-054>057-064-300200-
   West Central Minnesota

CITY           SKY/WX    TMP DP  RH WIND       PRES   REMARKS
FERGUS FALLS   PTCLDY    54  25  32 E7        30.20R
WHEATON        CLOUDY    55  19  24 NE7       30.21F
MORRIS         CLOUDY    54  25  32 NE9       30.18F
ALEXANDRIA     CLOUDY    52  21  29 NE10      30.20R
ELBOW LAKE     FAIR      54  27  35 E9        30.20R
WADENA         PTCLDY    52  25  35 NE5       30.20R
GLENWOOD       CLOUDY    52  21  30 NE12      30.19R
APPLETON       CLOUDY    55  21  26 NE9       30.17F
BENSON         CLOUDY    54  14  20 E6        30.20R
ORTONVILLE     CLOUDY    54  25  32 NE8       30.17F
MADISON        CLOUDY    55  27  33 NE10      30.16F
WILLMAR        FAIR      52  28  40 NE13      30.19R
$$
MNZ033>034-036-042>043-049>051-058-059-300200-
   Central Minnesota

CITY           SKY/WX    TMP DP  RH WIND       PRES   REMARKS
ST CLOUD       MOCLDY    50  12  21 NE12G20   30.19R
SAUK CENTRE    FAIR      50  24  36 NE8       30.19R
PAYNESVILLE    CLOUDY    51  21  30 NE9       30.19R
AITKIN         PTCLDY    52  19  28 E8        30.19R
PINE RIVER     PTCLDY    54  25  32 NE5       30.22S
BRAINERD       CLOUDY    52  19  27 NE9       30.19S
STAPLES        PTCLDY    54  18  24 CALM      30.20R
LONG PRAIRIE   FAIR      50  23  34 N6        30.20R
LITTLE FALLS   CLOUDY    52  21  30 E5        30.21R
LITCHFIELD     CLOUDY    54  25  32 NE13      30.18R
BUFFALO        MOCLDY    51  22  32 NE12      30.19R
MAPLE LAKE     MOCLDY    52  24  33 NE9       30.20R
HUTCHINSON     CLEAR     51  26  37 NE8       30.18R
$$
MNZ037-044-045-052-053-300200-
   East Central Minnesota

CITY           SKY/WX    TMP DP  RH WIND       PRES   REMARKS
PRINCETON      MOCLDY    52  19  28 NE8       30.20R
MORA           MOCLDY    48  14  25 NE6       30.21S
CAMBRIDGE      CLOUDY    52  32  46 N7        30.18R
RUSH CITY      PTCLDY    49  26  40 NE13G21   30.19R
MOOSE LAKE     CLEAR     43  21  42 NE3       30.21R
HINCKLEY       FAIR      46  21  36 NE8       30.20R
CLOQUET        CLEAR     43  14  31 E9        30.25R
MCGREGOR       CLEAR     46  21  36 E9        30.22R
$$
MNZ071>073-080-081-089-090-097-098-300200-
   Southwest Minnesota

CITY           SKY/WX    TMP DP  RH WIND       PRES   REMARKS
MONTEVIDEO     CLOUDY    52  23  32 E12       30.17F
GRANITE FALLS  CLOUDY    53  28  38 N12       30.17F
CANBY          CLOUDY    53  24  33 NE12      30.17F
MARSHALL       CLOUDY    51  25  36 NE14      30.14F
REDWOOD FALLS  CLOUDY    52  21  29 NE10      30.15F
OLIVIA         CLOUDY    52  25  35 NE12      30.15F
PIPESTONE      MOCLDY    50  16  25 NE13G22   30.12S
WINDOM         CLOUDY    48  23  37 NE13      30.12S
WORTHINGTON    CLOUDY    47  25  42 NE17      30.11S
JACKSON        MOCLDY    46  28  49 NE16      30.10F
TRACY          CLOUDY    50  26  39 NE10G18   30.14F
SLAYTON        CLOUDY    48  24  39 NE13      30.13F
$$
MNZ065>067-074>077-082>085-091>093-300200-
   South Central Minnesota

CITY           SKY/WX    TMP DP  RH WIND       PRES   REMARKS
MANKATO        CLOUDY    51  28  41 NE14      30.14S
NEW ULM        CLOUDY    52  21  30 NE12      30.14F
ST JAMES       MOCLDY    48  27  43 NE9       30.13S
FAIRMONT       CLOUDY    49  29  46 NE13      30.11S
GLENCOE        CLOUDY    52  26  36 NE6       30.16R
FARIBAULT      CLOUDY    50  30  46 NE6       30.14S
OWATONNA       CLOUDY    48  28  46 NE9       30.13F
WASECA         CLOUDY    50  32  50 NE9G20    30.14F
ALBERT LEA     CLOUDY    46  28  49 NE12G18   30.11R
$$
MNZ078>079-086>088-094>096-300200-
   Southeast Minnesota

CITY           SKY/WX    TMP DP  RH WIND       PRES   REMARKS
ROCHESTER      CLOUDY    47  31  53 NE15      30.11R
RED WING       MOCLDY    54  25  32 E8        30.16R
STANTON        CLOUDY    52  29  41 E10       30.15R
DODGE CENTER   MOCLDY    46  30  53 NE14      30.11F
WINONA         CLOUDY    50  30  46 SE7       30.17R
AUSTIN         CLOUDY    46  30  53 NE14G20   30.10F
PRESTON        CLOUDY    45  29  52 NE12G18   30.11F
$$
ABBREVIATIONS USED IN REMARKS
   TC - TEMPERATURES IN CELSIUS
  WCI - WIND CHILL INDEX
   HX - HEAT INDEX
  VSB - VISIBILITY
$$



USA.gov is the U.S. government's official web portal to all federal, state and local government web resources and services.